Location: Lourdes
(43.1000°N, 0.0500°W)
Time: 05:54:34
(UTC+00:00)

Cosmos 1812 - Pass Details

Date: 30 November 2020
Orbit: 517 x 520 km, 82.5° (Epoch: 27 January)

Event Time Altitude Azimuth Distance (km) Brightness Sun altitude
Rises 17:44:36 0° 159° (SSE) 2,625 6.2 -13.9°
Reaches altitude 10° 17:46:58 10° 146° (SE) 1,743 5.2 -14.3°
Enters shadow 17:49:52 25° 97° (E) 1,078 3.8 -14.8°
